Date String (YYYY-MM-DD hh:mm:ss) UTC,Instrument flags,Ambient pressure (hPa),Sample flow (lpm),Bypass flow (lpm),Sample temperature (°C),Ambient temperature (°C),ASC tube jacket temperature (°C),LED temperature (°C),Box temperature (°C),Sample RH (%),Span deviation,Mass concentration (μg/m³),Mass concentration (μg/m³),Mass concentration (μg/m³)
DateTimeUTC,F1_M11,P_M11,Q1_M11,Q2_M11,T1_M11,T2_M11,T3_M11,T4_M11,T5_M11,U1_M11,ZSPAN_M11,X0_M11,X2_M11,X1_M11
2022-05-07 02:00:00,,0821.0,5.00,0.00,29.6,27.4,00.0,38.3,31.2,12.6,0000.0,0014.00,0004.50,0002.76
2022-05-07 02:01:00,,0821.0,5.01,0.00,29.4,25.2,00.0,38.3,30.6,12.6,0000.0,0014.15,0004.51,0002.74
2022-05-07 02:02:00,,0820.9,4.99,0.00,29.3,24.9,00.0,38.3,30.6,12.9,0000.0,0014.10,0004.49,0002.74
2022-05-07 02:03:00,,0820.9,5.00,0.00,29.2,25.4,00.0,38.2,30.7,12.9,0000.0,0013.51,0004.42,0002.73
2022-05-07 02:04:00,,0820.9,5.01,0.00,29.1,25.9,00.0,38.1,30.7,13.0,0000.0,0013.08,0004.37,0002.71
2022-05-07 02:05:00,,0821.0,4.99,0.00,29.1,26.4,00.0,38.1,30.8,13.0,0000.0,0013.36,0004.39,0002.69
2022-05-07 02:06:00,,0821.0,5.00,0.00,29.1,26.9,00.0,38.1,30.9,12.9,0000.0,0013.44,0004.40,0002.68
2022-05-07 02:07:00,,0821.0,5.00,0.00,29.2,27.3,00.0,38.1,31.0,12.9,0000.0,0013.27,0004.41,0002.67
2022-05-07 02:08:00,,0821.0,4.99,0.00,29.2,27.6,00.0,38.1,31.1,12.9,0000.0,0013.03,0004.39,0002.64
2022-05-07 02:09:00,,0821.0,4.99,0.00,29.3,27.9,00.0,38.1,31.1,12.9,0000.0,0013.18,0004.40,0002.63
2022-05-07 02:10:00,,0821.1,5.01,0.00,29.3,28.1,00.0,38.1,31.2,12.4,0000.0,0013.11,0004.36,0002.62
2022-05-07 02:11:00,,0821.1,5.00,0.00,29.4,28.3,00.0,38.1,31.2,12.8,0000.0,0012.46,0004.30,0002.60
2022-05-07 02:12:00,,0821.1,5.00,0.00,29.4,28.4,00.0,38.1,31.3,13.0,0000.0,0012.91,0004.29,0002.61
2022-05-07 02:13:00,,0821.1,5.01,0.00,29.4,28.6,00.0,38.2,31.4,12.5,0000.0,0013.72,0004.34,0002.60
2022-05-07 02:14:00,,0821.1,4.99,0.00,29.5,28.7,00.0,38.2,31.4,12.8,0000.0,0014.22,0004.39,0002.61
2022-05-07 02:15:00,,0821.1,4.99,0.00,29.5,28.8,00.0,38.2,31.5,12.7,0000.0,0014.74,0004.39,0002.63
2022-05-07 02:16:00,,0821.1,5.01,0.00,29.6,28.9,00.0,38.3,31.5,12.7,0000.0,0014.75,0004.40,0002.64
2022-05-07 02:17:00,,0821.1,5.01,0.00,29.6,28.9,00.0,38.3,31.6,12.7,0000.0,0015.05,0004.46,0002.65
2022-05-07 02:18:00,,0821.1,5.00,0.00,29.7,29.0,00.0,38.4,31.6,12.6,0000.0,0015.83,0004.49,0002.68
2022-05-07 02:19:00,,0821.1,5.00,0.00,29.7,27.9,00.0,38.4,31.4,12.6,0000.0,0015.65,0004.49,0002.69
2022-05-07 02:20:00,,0821.1,5.02,0.00,29.5,25.4,00.0,38.4,30.8,12.7,0000.0,0015.22,0004.51,0002.71
2022-05-07 02:21:00,,0821.1,4.99,0.00,29.3,24.7,00.0,38.3,30.6,12.8,0000.0,0014.82,0004.53,0002.71
2022-05-07 02:22:00,,0821.1,5.00,0.00,29.3,25.2,00.0,38.3,30.7,12.9,0000.0,0014.44,0004.57,0002.72
2022-05-07 02:23:00,,0821.1,5.01,0.00,29.2,25.7,00.0,38.2,30.8,12.9,0000.0,0013.89,0004.55,0002.71
2022-05-07 02:24:00,,0821.1,4.98,0.00,29.2,26.2,00.0,38.2,30.9,12.9,0000.0,0013.73,0004.53,0002.71
2022-05-07 02:25:00,,0821.1,4.99,0.00,29.2,26.7,00.0,38.1,30.9,12.9,0000.0,0013.66,0004.47,0002.71
2022-05-07 02:26:00,,0821.1,4.99,0.00,29.2,27.1,00.0,38.1,31.0,13.0,0000.0,0013.07,0004.46,0002.72
2022-05-07 02:27:00,,0821.1,5.01,0.00,29.2,27.5,00.0,38.1,31.1,12.9,0000.0,0013.06,0004.45,0002.73
2022-05-07 02:28:00,,0821.1,5.00,0.00,29.3,27.8,00.0,38.1,31.1,13.0,0000.0,0012.99,0004.45,0002.72
2022-05-07 02:29:00,,0821.1,5.01,0.00,29.3,28.0,00.0,38.1,31.2,12.8,0000.0,0012.14,0004.43,0002.70
2022-05-07 02:30:00,,0821.1,4.99,0.00,29.4,28.2,00.0,38.2,31.2,13.0,0000.0,0013.06,0004.47,0002.70
2022-05-07 02:31:00,,0821.1,5.00,0.00,29.4,28.4,00.0,38.2,31.3,13.3,0000.0,0012.89,0004.47,0002.67
2022-05-07 02:32:00,,0821.1,5.01,0.00,29.4,28.5,00.0,38.2,31.3,12.5,0000.0,0012.66,0004.44,0002.64
2022-05-07 02:33:00,,0821.1,5.00,0.00,29.5,28.6,00.0,38.2,31.4,12.9,0000.0,0012.65,0004.40,0002.62
2022-05-07 02:34:00,,0821.2,5.01,0.00,29.5,28.7,00.0,38.3,31.4,12.8,0000.0,0012.78,0004.42,0002.63
2022-05-07 02:35:00,,0821.2,4.99,0.00,29.6,28.8,00.0,38.3,31.5,12.6,0000.0,0012.31,0004.36,0002.63
2022-05-07 02:36:00,,0821.2,5.00,0.00,29.6,28.9,00.0,38.3,31.5,13.2,0000.0,0012.74,0004.43,0002.66
2022-05-07 02:37:00,,0821.2,5.00,0.00,29.7,29.0,00.0,38.4,31.6,13.6,0000.0,0013.05,0004.48,0002.65
2022-05-07 02:38:00,,0821.2,5.01,0.00,29.7,28.4,00.0,38.4,31.5,13.4,0000.0,0013.48,0004.54,0002.66
2022-05-07 02:39:00,,0821.2,4.99,0.00,29.6,26.3,00.0,38.4,31.0,13.2,0000.0,0013.61,0004.51,0002.67
2022-05-07 02:40:00,,0821.2,5.00,0.00,29.5,25.9,00.0,38.4,30.9,13.5,0000.0,0013.70,0004.50,0002.68
2022-05-07 02:41:00,,0821.2,4.99,0.00,29.4,26.2,00.0,38.3,31.0,13.7,0000.0,0012.68,0004.47,0002.69
2022-05-07 02:42:00,,0821.3,5.01,0.00,29.4,26.6,00.0,38.3,31.0,13.9,0000.0,0012.64,0004.48,0002.73
2022-05-07 02:43:00,,0821.3,5.00,0.00,29.4,27.0,00.0,38.3,31.1,13.9,0000.0,0012.76,0004.53,0002.79
2022-05-07 02:44:00,,0821.3,4.98,0.00,29.4,27.4,00.0,38.3,31.2,13.9,0000.0,0012.69,0004.55,0002.82
2022-05-07 02:45:00,,0821.3,4.99,0.00,29.4,27.7,00.0,38.3,31.2,13.8,0000.0,0012.89,0004.56,0002.85
2022-05-07 02:46:00,,0821.3,5.01,0.00,29.4,27.9,00.0,38.3,31.3,13.7,0000.0,0013.66,0004.62,0002.88
2022-05-07 02:47:00,,0821.3,5.00,0.00,29.5,28.1,00.0,38.3,31.3,13.6,0000.0,0013.47,0004.60,0002.88
2022-05-07 02:48:00,,0821.3,5.00,0.00,29.5,28.3,00.0,38.3,31.3,13.7,0000.0,0013.86,0004.51,0002.89
2022-05-07 02:49:00,,0821.3,5.00,0.00,29.5,28.5,00.0,38.3,31.4,13.7,0000.0,0013.18,0004.44,0002.92
2022-05-07 02:50:00,,0821.3,5.01,0.00,29.6,28.6,00.0,38.4,31.5,13.6,0000.0,0013.06,0004.50,0002.94
2022-05-07 02:51:00,,0821.4,5.00,0.00,29.6,28.7,00.0,38.4,31.5,13.5,0000.0,0013.05,0004.57,0002.98
2022-05-07 02:52:00,,0821.4,4.99,0.00,29.7,28.8,00.0,38.4,31.5,13.4,0000.0,0013.03,0004.61,0003.03
2022-05-07 02:53:00,,0821.4,5.00,0.00,29.7,28.8,00.0,38.4,31.6,13.4,0000.0,0013.12,0004.66,0003.05
2022-05-07 02:54:00,,0821.4,5.01,0.00,29.7,28.3,00.0,38.5,31.4,13.3,0000.0,0013.09,0004.66,0003.07
2022-05-07 02:55:00,,0821.4,4.99,0.00,29.6,26.2,00.0,38.5,31.0,13.8,0000.0,0013.20,0004.68,0003.09
2022-05-07 02:56:00,,0821.3,5.01,0.00,29.5,25.9,00.0,38.4,31.0,13.9,0000.0,0013.57,0004.68,0003.09
2022-05-07 02:57:00,,0821.3,4.99,0.00,29.4,26.2,00.0,38.4,31.0,13.8,0000.0,0013.00,0004.65,0003.07
2022-05-07 02:58:00,,0821.4,5.00,0.00,29.4,26.6,00.0,38.4,31.1,13.7,0000.0,0012.47,0004.63,0003.05
2022-05-07 02:59:00,,0821.3,5.00,0.00,29.4,27.0,00.0,38.4,31.1,13.8,0000.0,0011.92,0004.67,0003.07
